FW4406 Weather Reports


Display with metric or nautical units.
time (UTC)temp
F
wind
direction
speed
MPH
gust
MPH
rain 1hr
in
rain 24hr
in
rain mn
in
humidity
%
barometer
mb
20260507220023 60 198 1.0 3.0 0.00 0.00 0.00 48 1011.4
20260507214553 60 30 1.0 6.0 0.00 0.00 0.00 49 1011.4
20260507213111 60 66 0.0 4.0 0.00 0.00 0.00 49 1011.1
20260507211551 61 195 1.0 4.0 0.00 0.00 0.00 48 1011.0
20260507210005 62 51 1.0 5.0 0.00 0.00 0.00 48 1011.1
20260507204527 62 190 2.0 7.0 0.00 0.00 0.00 48 1011.0
20260507203041 62 162 2.0 5.0 0.00 0.00 0.00 47 1011.2
20260507201554 62 202 1.0 6.0 0.00 0.00 0.00 49 1011.3
20260507200104 60 59 0.0 3.0 0.00 0.00 0.00 55 1011.2
20260507194558 61 238 1.0 3.0 0.00 0.00 0.00 52 1011.8
20260507193006 62 164 0.0 4.0 0.00 0.00 0.00 55 1011.9
20260507191509 61 295 1.0 2.0 0.00 0.00 0.00 52 1011.9
20260507190031 61 99 0.0 6.0 0.00 0.00 0.00 52 1012.0
20260507184528 63 186 1.0 5.0 0.00 0.00 0.00 49 1012.0
20260507183038 61 44 1.0 3.0 0.00 0.00 0.00 57 1012.1
20260507181543 62 181 1.0 4.0 0.00 0.00 0.00 50 1012.1
20260507180051 61 180 2.0 4.0 0.00 0.02 0.00 53 1012.1
20260507174602 61 197 1.0 3.0 0.00 0.02 0.00 52 1012.2
20260507173008 62 69 1.0 6.0 0.00 0.02 0.00 54 1012.4
20260507171505 61 267 1.0 6.0 0.00 0.02 0.00 54 1012.7
20260507170021 58 23 2.0 4.0 0.00 0.04 0.00 59 1012.8
20260507164540 59 59 2.0 6.0 0.00 0.04 0.00 55 1012.9
20260507163045 59 44 2.0 5.0 0.00 0.04 0.00 52 1013.1
20260507161601 57 182 2.0 4.0 0.00 0.04 0.00 57 1013.3
20260507160054 58 23 3.0 6.0 0.00 0.08 0.00 55 1013.3
20260507154559 58 200 1.0 5.0 0.00 0.08 0.00 53 1013.6
20260507153010 57 65 1.0 4.0 0.00 0.08 0.00 58 1013.7
20260507151519 56 40 1.0 4.0 0.00 0.08 0.00 63 1014.0
20260507150029 57 34 1.0 4.0 0.00 0.08 0.00 60 1014.0
20260507144542 56 38 1.0 4.0 0.00 0.08 0.00 58 1014.2
20260507143053 56 22 2.0 4.0 0.00 0.08 0.00 60 1014.2
20260507141551 56 105 0.0 3.0 0.00 0.08 0.00 67 1014.6
20260507140055 55 59 0.0 3.0 0.00 0.08 0.00 62 1014.8
20260507134613 55 42 2.0 4.0 0.00 0.08 0.00 62 1015.1
20260507133008 54 184 2.0 3.0 0.00 0.08 0.00 67 1015.2
20260507131522 53 192 1.0 3.0 0.00 0.08 0.00 67 1015.2
20260507130013 51 177 1.0 2.0 0.00 0.10 0.00 73 1015.1
20260507124517 48 40 0.0 1.0 0.00 0.10 0.00 84 1015.2
20260507123022 45 40 0.0 1.0 0.00 0.10 0.00 89 1015.3
20260507121540 44 40 0.0 1.0 0.00 0.10 0.00 92 1015.2
20260507120044 43 67 0.0 2.0 0.00 0.10 0.00 95 1015.2
20260507114556 42 152 0.0 1.0 0.00 0.10 0.00 95 1015.0
20260507113101 41 152 0.0 1.0 0.00 0.10 0.00 95 1015.0
20260507111601 41 152 0.0 1.0 0.00 0.10 0.00 95 1014.8
20260507110058 40 169 0.0 1.0 0.00 0.18 0.00 95 1014.6
20260507104515 40 169 0.0 1.0 0.00 0.18 0.00 94 1014.5
20260507103021 41 169 0.0 1.0 0.00 0.18 0.00 94 1014.4
20260507101534 41 167 0.0 1.0 0.00 0.18 0.00 93 1014.5
20260507100039 42 141 1.0 3.0 0.00 0.30 0.00 93 1014.4
20260507094533 43 20 0.0 1.0 0.00 0.30 0.00 94 1014.3
20260507093039 44 20 0.0 2.0 0.00 0.30 0.00 94 1014.1
20260507091547 45 20 0.0 1.0 0.00 0.30 0.00 93 1014.2
20260507090052 46 20 0.0 1.0 0.00 0.32 0.00 93 1014.2
20260507084550 47 20 0.0 1.0 0.00 0.32 0.00 93 1014.1
20260507083108 47 20 0.0 0.0 0.00 0.32 0.00 92 1014.2
20260507081507 48 20 0.0 1.0 0.00 0.32 0.00 93 1014.1
20260507080024 48 20 0.0 1.0 0.00 0.32 0.00 93 1014.1
20260507074540 48 20 0.0 2.0 0.00 0.32 0.00 93 1013.9
20260507073057 48 20 0.0 1.0 0.00 0.32 0.00 94 1014.0
20260507071555 49 20 0.0 1.0 0.00 0.32 0.00 94 1013.8
20260507070013 49 20 0.0 0.0 0.00 0.32 0.00 94 1013.7
20260507064525 49 20 0.0 1.0 0.00 0.32 0.00 93 1013.9
20260507063029 49 20 0.0 0.0 0.00 0.32 0.00 92 1013.9
20260507061530 49 20 0.0 0.0 0.00 0.32 0.00 92 1013.7
20260507060034 49 20 0.0 1.0 0.00 0.32 0.00 92 1013.6
20260507054534 50 20 0.0 1.0 0.00 0.32 0.00 92 1013.9
20260507053031 50 20 0.0 2.0 0.00 0.32 0.00 91 1014.2
20260507051534 50 20 0.0 1.0 0.00 0.32 0.00 93 1014.3
20260507050040 50 10 0.0 2.0 0.00 0.32 0.00 94 1014.3
20260507044549 51 37 0.0 3.0 0.00 0.32 0.00 96 1014.3
20260507043056 51 5 0.0 2.0 0.00 0.32 0.00 96 1013.9
20260507041527 51 5 0.0 2.0 0.00 0.32 0.00 96 1013.9
20260507040028 51 5 0.0 2.0 0.00 0.32 0.32 96 1013.9
20260507034547 51 5 0.0 1.0 0.00 0.32 0.32 96 1013.7
20260507033054 51 5 0.0 1.0 0.00 0.32 0.32 95 1013.8
20260507031502 51 5 0.0 0.0 0.00 0.32 0.32 96 1014.3
20260507030006 51 5 0.0 0.0 0.00 0.32 0.32 95 1014.0
20260507024515 51 5 0.0 0.0 0.00 0.32 0.32 95 1013.7
20260507023019 51 5 0.0 1.0 0.00 0.32 0.32 95 1013.5
20260507021523 51 5 0.0 0.0 0.00 0.32 0.32 94 1013.3
20260507020030 51 5 0.0 2.0 0.00 0.32 0.32 94 1013.0
20260507014552 52 5 0.0 1.0 0.00 0.32 0.32 94 1013.1
20260507013054 52 5 0.0 2.0 0.00 0.32 0.32 94 1013.0
20260507011603 52 5 0.0 2.0 0.00 0.32 0.32 94 1013.1
20260507010002 52 5 0.0 2.0 0.00 0.32 0.32 93 1012.5
20260507004531 52 5 0.0 1.0 0.00 0.32 0.32 94 1012.6
20260507003027 52 5 0.0 0.0 0.00 0.32 0.32 94 1012.8
20260507001539 52 5 1.0 2.0 0.00 0.32 0.32 93 1012.7
20260507000042 53 5 0.0 1.0 0.00 0.32 0.32 93 1013.4
20260506234552 53 5 0.0 1.0 0.00 0.32 0.32 92 1013.1
20260506233054 53 5 0.0 1.0 0.00 0.32 0.32 91 1012.9
20260506231600 53 5 0.0 2.0 0.00 0.32 0.32 90 1012.6
20260506230013 54 5 0.0 2.0 0.00 0.32 0.32 88 1012.6
20260506224519 54 5 0.0 2.0 0.00 0.32 0.32 89 1012.4
20260506223049 54 192 0.0 1.0 0.00 0.32 0.32 91 1012.2
20260506221538 54 191 0.0 1.0 0.00 0.32 0.32 90 1012.1